This is the latest recevied weather packets stored in our database for station/object G4WLC-1. If no packets are shown the sender has not sent any weather packets the latest 10 day(s).
| Time | Temp. | Humidity | Pressure | Rain* | Wind** | Luminosity | Snow |
|---|---|---|---|---|---|---|---|
| 1777803790 | 15.56° C | 83% | 1010.1 hPa | 0 mm | - | - | - |
| 1777803490 | 15° C | 81% | 1010 hPa | 0 mm | - | - | - |
| 1777803190 | 15° C | 84% | 1009.9 hPa | 0 mm | - | - | - |
| 1777802890 | 14.44° C | 83% | 1010 hPa | 0 mm | - | - | - |
| 1777802590 | 13.89° C | 84% | 1009.9 hPa | 0 mm | - | - | - |
| 1777802290 | 13.89° C | 83% | 1009.9 hPa | 0 mm | - | - | - |
| 1777801990 | 13.89° C | 85% | 1009.7 hPa | 0 mm | - | - | - |
| 1777801690 | 13.33° C | 87% | 1010 hPa | 0 mm | - | - | - |
| 1777801390 | 12.78° C | 86% | 1010 hPa | 0 mm | - | - | - |
| 1777801090 | 13.33° C | 86% | 1009.9 hPa | 0 mm | - | - | - |
| 1777800790 | 13.33° C | 87% | 1009.9 hPa | 0 mm | - | - | - |
| 1777800490 | 12.78° C | 87% | 1009.9 hPa | 0 mm | - | - | - |
| 1777800190 | 12.78° C | 88% | 1009.8 hPa | 0 mm | - | - | - |
| 1777799890 | 12.78° C | 88% | 1009.7 hPa | 0 mm | - | - | - |
| 1777799590 | 12.78° C | 89% | 1009.7 hPa | 0 mm | - | - | - |
| 1777799290 | 12.22° C | 89% | 1009.9 hPa | 0 mm | - | - | - |
| 1777798990 | 12.22° C | 89% | 1009.9 hPa | 0 mm | - | - | - |
| 1777798690 | 12.22° C | 89% | 1009.9 hPa | 0 mm | - | - | - |
| 1777798390 | 12.22° C | 88% | 1009.8 hPa | 0 mm | - | - | - |
| 1777798090 | 12.78° C | 88% | 1009.9 hPa | 0 mm | - | - | - |
| 1777797790 | 12.78° C | 89% | 1009.9 hPa | 0 mm | - | - | - |
| 1777797490 | 12.78° C | 89% | 1009.8 hPa | 0 mm | - | - | - |
| 1777797190 | 12.78° C | 89% | 1009.9 hPa | 0 mm | - | - | - |
| 1777796890 | 12.22° C | 89% | 1009.9 hPa | 0 mm | - | - | - |
| 1777796590 | 12.22° C | 89% | 1009.9 hPa | 0 mm | - | - | - |
* Rain latest hour (hover to see other rain measurements)
** Current wind speed in m/s (hover to see current wind gust speed)